Regional Weather Roundup
Issued by NWS

Home | Current Version | Previous Version | Text Only | Print | Product List | Glossary Off
Versions: 1 2 3 4 5 6 7 8 9 10 11 12 13 14 15 16 17 18 19 20 21 22 23 24 25 26 27

000
ASUS45 KBOU 051807
RWRCO

WEATHER ROUNDUP FOR COLORADO
NATIONAL WEATHER SERVICE DENVER/BOULDER CO
1200 PM MDT THU MAY 05 2016

NOTE: "FAIR" INDICATES FEW OR NO CLOUDS BELOW 12000 FEET WITH NO
SIGNIFICANT WEATHER AND/OR OBSTRUCTIONS TO VISIBILITY.

COZ001>005-013-030-031-051900-
...NORTHWEST COLORADO...

CITY           SKY/WX    TMP DP  RH WIND       PRES   REMARKS
CRAIG          FAIR      74  31  20 VRB3      30.14F
HAYDEN         FAIR      70  27  19 NW3       30.17F
MEEKER         FAIR      76  25  15 S13G18    30.14F
MOUNT WERNER   NOT AVBL
STEAMBOAT SPGS FAIR      68  28  22 CALM      30.19F
WALDEN         FAIR      63  23  22 S3        30.28F
$$

COZ006>008-011-051900-
...WEST CENTRAL VALLEYS...

CITY           SKY/WX    TMP DP  RH WIND       PRES   REMARKS
GRAND JUNCTION FAIR      73  33  23 E9        30.06F
MONTROSE       FAIR      75  30  19 N7        30.13F
EAGLE          SUNNY     64  27  24 CALM      30.21F
RIFLE          FAIR      74  35  24 CALM      30.12F
DELTA          NOT AVBL
NUCLA          NOT AVBL
$$

COZ017>023-064>068-051900-
...SOUTHWEST COLORADO...

CITY           SKY/WX    TMP DP  RH WIND       PRES   REMARKS
DURANGO        FAIR      69  28  21 E8        30.23F
CORTEZ         FAIR      76  29  17 SE16      30.15F
PAGOSA SPRINGS FAIR      67  20  16 CALM      30.29F
TELLURIDE      NOT AVBL
WOLF CREEK PAS PTSUNNY   46  19  34 S13       30.55F
$$

COZ009-010-012-014-032>034-037-058>063-051900-
...CENTRAL COLORADO...

CITY           SKY/WX    TMP DP  RH WIND       PRES   REMARKS
ASPEN          FAIR      68  24  19 NW13      30.24F
BUENA VISTA    FAIR      65  21  18 NE3       30.29F
COPPER MTN     NOT AVBL
BERTHOUD PASS  FAIR      37  30  75 NE5G20    30.53S
COTTONWOOD PAS FAIR      63  19  19 E6        30.40F
GUNNISON       FAIR      64  25  22 CALM      30.30F
KREMMLING      FAIR      68  27  21 CALM      30.25F
LEADVILLE      FAIR      56  12  17 MISG      30.37F
MONARCH PASS   FAIR      43  21  42 NW9G21    30.62F
SALIDA         FAIR      71  19  14 E5        30.34F
SUNLIGHT       CLOUDY    54  23  30 CALM      30.46F
WILKERSON PASS FAIR      52  19  28 W6        30.51S
$$

COZ069>075-051900-
...SAN LUIS VALLEY/SANGRE DE CRISTO MOUNTAINS...

CITY           SKY/WX    TMP DP  RH WIND       PRES   REMARKS
ALAMOSA        FAIR      66  22  18 SE6       30.29F
LA VETA PASS   FAIR      57  21  24 S7        30.44S
SAGUACHE       FAIR      63  27  25 S10       30.32F
$$

COZ035-036-038>040-051900-
...NORTHERN COLORADO FRONT RANGE...

CITY           SKY/WX    TMP DP  RH WIND       PRES   REMARKS
DENVER INTL AP PTSUNNY   75  32  20 W5        30.13F
DMNS CITY PARK   N/A     78  29  16 E7G16     30.11F
AURORA         FAIR      75  29  18 NW3       30.14F
FRONT RANGE AP NOT AVBL
ERIE MUNI ARPT FAIR      76  31  19 E6        30.10F
BOULDER MUN AP FAIR      75  39  27 E5        30.10F
CENTENNIAL     FAIR      74  22  14 NW5       30.15F
BROOMFIELD     PTSUNNY   75  30  19 E9        30.13F
FORT COLLINS   FAIR      75  45  33 E6        30.09F
LONGMONT       FAIR      79  37  22 E7        30.11F
$$

COZ041-046-047-076>085-087-088-051900-
...PIKES PEAK/PALMER DIVIDE AND SOUTHERN FOOTHILLS...

CITY           SKY/WX    TMP DP  RH WIND       PRES   REMARKS
COLO. SPRINGS  FAIR      76  21  12 VRB6      30.18F
A. F. ACADEMY  FAIR      73  21  14 VRB2      30.18F
SCHRIEVER AFB  NOT AVBL
ELLICOTT       FAIR     N/A N/A N/A SE7G16    30.17F
FALCON         NOT AVBL
FORT CARSON    FAIR      75  32  20 VRB7G22   30.15F
LIMON          FAIR      74  32  21 SE12      30.14F
MONUMENT HILL  FAIR      68  27  21 N8        30.25S
TRINIDAD       FAIR      74  27  17 CALM      30.18F
$$

COZ042>045-048>051-090-091-051900-
...NORTHEAST COLORADO...

CITY           SKY/WX    TMP DP  RH WIND       PRES   REMARKS
GREELEY ARPT   FAIR      73  43  33 CALM      30.10F
AKRON          FAIR      77  37  23 S12G18    30.09F
BURLINGTON     FAIR      77  35  21 S14G24    30.11F
WRAY           NOT AVBL
STERLING       FAIR      77  46  33 SW10      30.06S
HOLYOKE        NOT AVBL
FORT MORGAN    FAIR      73  41  30 SW6       30.10F
$$

COZ086-089-092>099-051900-
...SOUTHEAST COLORADO...

CITY           SKY/WX    TMP DP  RH WIND       PRES   REMARKS
PUEBLO         FAIR      78  37  22 SE6       30.10F
LA JUNTA       FAIR      75  41  29 VRB5      30.09F
LAMAR          FAIR      76  45  33 SE8       30.06F
SPRINGFIELD      N/A     77  42  28 MISG      30.10S
$$




USA.gov is the U.S. government's official web portal to all federal, state and local government web resources and services.